Simultaneous Nadir Overpasses (SNOs) Predictions

Prediction of SNOs between AQUA and NPP Satellite Orbit:

Table of predicted SNOs for the next 14.0 days since TLE Epoch: 7/22/2016
Index Date (AQUA) Time (AQUA) Lat,Lon (AQUA) SZA (AQUA ) Date (NPP) Time (NPP) Lat,Lon (NPP) SZA (NPP ) Distance(km) Time Diff (sec)
1 07/24/2016 13:15:54 74.41,-144.25 80.12 07/24/2016 13:15:14 74.41,-144.19 80.14 2.12 40
2 07/24/2016 14:04:58 -75.61, 26.55 101.26 07/24/2016 14:05:35 -75.62, 26.58 101.30 0.81 37
3 07/27/2016 05:32:24 74.37, -28.45 80.74 07/27/2016 05:32:09 74.36, -28.54 80.77 2.84 15
4 07/27/2016 06:21:19 -76.03, 143.67 101.17 07/27/2016 06:22:20 -76.03, 143.73 101.23 1.64 61
5 07/29/2016 20:59:48 -73.36, -82.48 97.54 07/29/2016 20:58:40 -73.35, -82.52 97.47 1.60 68
6 07/29/2016 21:48:42 74.95, 88.85 80.70 07/29/2016 21:48:51 74.94, 88.80 80.70 1.68 9
7 08/01/2016 13:16:04 -73.99, 34.77 97.60 08/01/2016 13:15:20 -73.99, 34.76 97.56 0.54 44
8 08/01/2016 14:05:00 75.46,-153.89 80.75 08/01/2016 14:05:33 75.46,-153.89 80.73 0.07 33
9 08/04/2016 05:32:20 -74.67, 152.24 97.68 08/04/2016 05:32:00 -74.67, 152.28 97.67 1.07 20




NCC Satellite Simultaneous Nadir Overpasses (SNOs) Prediction Service
